Regional Weather Roundup
Issued by NWS Sterling, VA

Home | Current Version | Previous Version | Text Only | Print | Product List | Glossary Off
Versions: 1 2 3 4 5 6 7 8 9 10 11 12 13 14 15 16 17 18 19 20 21 22 23 24 25 26 27 28 29 30 31 32 33 34 35 36 37 38 39 40 41 42 43 44 45 46 47 48 49 50

000
ASUS41 KLWX 181110
RWRLWX

REGIONAL WEATHER ROUNDUP
NATIONAL WEATHER SERVICE BALTIMORE MD/WASHINGTON DC
600 AM EST THU DEC 18 2014

Note: "FAIR" indicates few or no clouds below 12,000 feet
with no significant weather and/or obstructions to visibility.
 TC=TEMPERATURE CELSIUS

 * =Non NWS site. Station does not report precipitation (e.g. rain,
    snow, etc.), thunder, or fog.

DCZ001-MDZ009-015-VAZ040>042-051-053>054-181200-
WASHINGTON METRO

CITY           SKY/WX    TMP DP  RH WIND       PRES   REMARKS
WASHINGTON NAT MOCLDY    39  18  42 NW8       30.14R
DULLES         PTCLDY    32  19  58 NW15      30.13R WCI  22
ANDREWS AFB    PTCLDY    35  20  54 NW8       30.11R WCI  29
FT BELVOIR     PTCLDY    35  19  53 W5        30.15R
QUANTICO       CLEAR     34  20  56 NW8       30.16R WCI  27
LEESBURG*      CLOUDY    34  23  64 NW12      30.14R WCI  25
MANASSAS*      CLOUDY    36  23  60 W8        30.14R
GAITHERSBURG*  PTCLDY    34  18  51 NW12G21   30.14R WCI  25

$$

MDZ006>007-011-014-181200-
BALTIMORE METRO

CITY           SKY/WX    TMP DP  RH WIND       PRES   REMARKS
BWI AIRPORT    PTCLDY    34  18  52 NW15G25   30.11R WCI  24
MD SCIENCE CTR   N/A     35  17  47 MISG      30.10R
MARTIN STATE   CLOUDY    37  21  52 W12       30.12R
ANNAPOLIS      PTCLDY    37  20  50 NW10      30.11R
FORT MEADE*    CLEAR     32  21  64 NW9G17    30.14R WCI  24

$$

MDZ012-015-019>023-181200-
MARYLAND EASTERN SHORE

CITY           SKY/WX    TMP DP  RH WIND       PRES   REMARKS
OCEAN CITY     CLEAR     33  23  66 NW6       30.09R
SALISBURY      CLEAR     37  22  54 W7        30.09R
BAY BRIDGE AP*   N/A     36  21  55 NW16G23   30.11R WCI  26
CAMBRIDGE*     PTCLDY    37  23  56 NW12      30.10R
EASTON*        PTCLDY    37  25  60 NW12      30.13R

$$

MDZ017>025-181200-
SOUTHERN MARYLAND

CITY           SKY/WX    TMP DP  RH WIND       PRES   REMARKS
PATUXENT RIVER PTCLDY    35  20  54 W12       30.12R WCI  27
ST INIGOES     CLEAR     36  19  50 NW10      30.12R WCI  28
LEONARDTOWN*   CLEAR     34  21  60 W6        30.13R

$$

MDZ003>005-181200-
NORTH CENTRAL MARYLAND

CITY           SKY/WX    TMP DP  RH WIND       PRES   REMARKS
FREDERICK*     NOT AVBL
HAGERSTOWN APT MOCLDY    32  19  58 NW15      30.10R WCI  22
WESTMINSTER*   PTCLDY    32  19  59 NW10G16   30.08R WCI  24

$$

MDZ501>502-181200-
WESTERN MARYLAND

CITY           SKY/WX    TMP DP  RH WIND       PRES   REMARKS
OAKLAND*       CLOUDY    19 N/A N/A W10G16    30.04R HAZE    WCI   8
CUMBERLAND*    CLOUDY    32  19  59 NW5       30.19R

$$

VAZ025>031-181200-
SHENANDOAH VALLEY

CITY           SKY/WX    TMP DP  RH WIND       PRES   REMARKS
WINCHESTER*    CLOUDY    34  16  47 NW16      30.13R WCI  23
FRONT ROYAL*   FAIR      32  19  59 W3        30.12R
LURAY*         FAIR      32  23  69 N6        30.13R
NEW MARKET*    FAIR      25  20  84 CALM      30.13R
STAUNTON*      CLEAR     26  19  73 NW3       30.13R
WAYNESBORO*    FAIR      29  19  65 W5        30.11R

$$

WVZ021-048>050-054>055-181200-
EASTERN WEST VIRGINIA PANHANDLE

CITY           SKY/WX    TMP DP  RH WIND       PRES   REMARKS
MARTINSBURG    MOCLDY    33  16  49 NW12G21   30.13R WCI  24
PETERSBURG*    PTCLDY    29  17  61 CALM      30.16R

$$

VAZ036>039-050-181200-
CENTRAL FOOTHILLS

CITY           SKY/WX    TMP DP  RH WIND       PRES   REMARKS
CHARLOTTESVILL PTCLDY    29  21  72 W3        30.12R
CULPEPER*      CLEAR     25  23  93 CALM      30.14R
ORANGE*        CLEAR     25  23  93 CALM      30.14S
GORDONSVILLE*  FAIR      26  23  89 CALM      30.13R
WARRENTON*     FAIR      32  26  77 NW7       30.14R

$$

VAZ055>057-181200-
NORTH AND CENTRAL PIEDMONT

CITY           SKY/WX    TMP DP  RH WIND       PRES   REMARKS
FREDERICKSBRG* CLEAR     33  24  71 NW7       30.14R
STAFFORD*      CLEAR     28  20  70 NW8       30.19R WCI  20

$$

NCZ024-NYZ072-PAZ021-071-VAZ022-071-181200-
OTHER REGIONAL OBSERVATIONS

CITY           SKY/WX    TMP DP  RH WIND       PRES   REMARKS
NEW YORK CITY  PTCLDY    38  22  52 W9G18     29.95R
PHILADELPHIA   PTCLDY    35  17  47 W10       30.05R WCI  27
PITTSBURGH     FLURRIES  28  19  69 W9        30.17R WCI  19
ROANOKE        PTCLDY    34  20  56 NW3       30.16R
RICHMOND       PTCLDY    32  24  72 NW5       30.14R
RALEIGH        PTCLDY    33  27  78 CALM      30.14R

$$

ANZ530>537-181200-
MARINE OBSERVATIONS

STATION/POSITION TIME  TEMP    WIND        PRES
                       AIR SEA DIR/SP/G
                 (UTC) (F)     (DEG/KT/KT) (MB)
THOMAS PT LIGHT  1100   37 42  320/ 18/ 20 1020.8R
BALT KEY BRIDGE  1100   37     290/ 17/ 21 1019.1R
COVE POINT       1100   35     320/ 10/ 15 1019.3R
LEWISETTA        1100   38 43  330/ 12/ 16 1019.8R
SOLOMONS ISLAND  1100      44                N/A
PINEY POINT      1100          340/ 22/ 25   N/A

$$




USA.gov is the U.S. government's official web portal to all federal, state and local government web resources and services.